Time,TemperatureF,DewpointF,PressureIn,WindDirection,WindDirectionDegrees,WindSpeedMPH,WindSpeedGustMPH,Humidity,HourlyPrecipIn,Conditions,Clouds,dailyrainin,SolarRadiationWatts/m^2,SoftwareType,DateUTC
2013-02-08 00:01:00,23.0,20.0,-100.00,NNE,25,2.0,5.0,89,0.00,,,0.02,1.000000,,2013-02-08 08:01:00,
2013-02-08 00:11:00,23.0,20.0,-100.00,NNE,25,2.0,5.0,89,0.00,,,0.02,1.000000,,2013-02-08 08:11:00,
2013-02-08 00:21:00,23.0,20.0,-100.00,NNE,25,2.0,5.0,89,0.00,,,0.02,1.000000,,2013-02-08 08:21:00,
2013-02-08 00:42:00,24.0,22.0,-100.00,East,100,1.0,4.0,91,0.00,,,0.02,1.000000,,2013-02-08 08:42:00,
2013-02-08 00:52:00,24.0,22.0,-100.00,East,100,1.0,4.0,91,0.00,,,0.02,1.000000,,2013-02-08 08:52:00,
2013-02-08 01:02:00,24.0,22.0,-100.00,East,100,1.0,4.0,91,0.00,,,0.02,1.000000,,2013-02-08 09:02:00,
2013-02-08 01:11:00,24.0,22.0,-100.00,East,100,1.0,4.0,91,0.00,,,0.02,1.000000,,2013-02-08 09:11:00,
2013-02-08 01:21:00,24.0,22.0,-100.00,East,100,1.0,4.0,91,0.00,,,0.02,1.000000,,2013-02-08 09:21:00,
2013-02-08 01:52:00,24.0,22.0,-100.00,NNE,14,1.0,4.0,92,0.00,,,0.02,1.000000,,2013-02-08 09:52:00,
2013-02-08 02:01:00,24.0,22.0,-100.00,NNE,14,1.0,4.0,92,0.00,,,0.02,1.000000,,2013-02-08 10:01:00,
2013-02-08 02:11:00,24.0,22.0,-100.00,NNE,14,1.0,4.0,92,0.00,,,0.02,1.000000,,2013-02-08 10:11:00,
2013-02-08 02:22:00,24.0,22.0,-100.00,NNE,14,1.0,4.0,92,0.00,,,0.02,1.000000,,2013-02-08 10:22:00,
2013-02-08 02:42:00,25.0,23.0,-100.00,SSW,212,1.0,5.0,93,0.00,,,0.02,1.000000,,2013-02-08 10:42:00,
2013-02-08 02:52:00,25.0,23.0,-100.00,SSW,212,1.0,5.0,93,0.00,,,0.02,1.000000,,2013-02-08 10:52:00,
2013-02-08 03:01:00,25.0,23.0,-100.00,SSW,212,1.0,5.0,93,0.00,,,0.02,1.000000,,2013-02-08 11:01:00,
2013-02-08 03:11:00,25.0,23.0,-100.00,SSW,212,1.0,5.0,93,0.00,,,0.02,1.000000,,2013-02-08 11:11:00,
2013-02-08 03:21:00,25.0,23.0,-100.00,SSW,212,1.0,5.0,93,0.00,,,0.02,1.000000,,2013-02-08 11:21:00,
2013-02-08 03:52:00,25.0,24.0,-100.00,NE,48,1.0,6.0,94,0.00,,,0.02,1.000000,,2013-02-08 11:52:00,
2013-02-08 04:01:00,25.0,24.0,-100.00,NE,48,1.0,6.0,94,0.00,,,0.02,1.000000,,2013-02-08 12:01:00,
2013-02-08 04:11:00,25.0,24.0,-100.00,NE,48,1.0,6.0,94,0.00,,,0.02,1.000000,,2013-02-08 12:11:00,
2013-02-08 04:22:00,25.0,24.0,-100.00,NE,48,1.0,6.0,94,0.00,,,0.02,1.000000,,2013-02-08 12:22:00,
2013-02-08 04:52:00,24.0,23.0,-100.00,NE,43,1.0,5.0,94,0.00,,,0.02,1.000000,,2013-02-08 12:52:00,
2013-02-08 05:01:00,24.0,23.0,-100.00,NE,43,1.0,5.0,94,0.00,,,0.02,1.000000,,2013-02-08 13:01:00,
2013-02-08 05:11:00,24.0,23.0,-100.00,NE,43,1.0,5.0,94,0.00,,,0.02,1.000000,,2013-02-08 13:11:00,
2013-02-08 05:21:00,24.0,23.0,-100.00,NE,43,1.0,5.0,94,0.00,,,0.02,1.000000,,2013-02-08 13:21:00,
2013-02-08 05:52:00,23.0,22.0,-100.00,NNW,327,0.0,2.0,97,0.00,,,0.02,1.000000,,2013-02-08 13:52:00,
2013-02-08 06:02:00,23.0,22.0,-100.00,NNW,327,0.0,2.0,97,0.00,,,0.02,1.000000,,2013-02-08 14:02:00,
2013-02-08 06:11:00,23.0,22.0,-100.00,NNW,327,0.0,2.0,97,0.00,,,0.02,1.000000,,2013-02-08 14:11:00,
2013-02-08 06:21:00,23.0,22.0,-100.00,NNW,327,0.0,2.0,97,0.00,,,0.02,1.000000,,2013-02-08 14:21:00,
2013-02-08 06:42:00,23.0,22.0,-100.00,North,3,1.0,3.0,94,0.00,,,0.02,1.000000,,2013-02-08 14:42:00,
2013-02-08 06:52:00,23.0,22.0,-100.00,North,3,1.0,3.0,94,0.00,,,0.02,1.000000,,2013-02-08 14:52:00,
2013-02-08 07:01:00,23.0,22.0,-100.00,North,3,1.0,3.0,94,0.00,,,0.02,1.000000,,2013-02-08 15:01:00,
2013-02-08 07:11:00,23.0,22.0,-100.00,North,3,1.0,3.0,94,0.00,,,0.02,1.000000,,2013-02-08 15:11:00,
2013-02-08 07:21:00,23.0,22.0,-100.00,North,3,1.0,3.0,94,0.00,,,0.02,1.000000,,2013-02-08 15:21:00,
2013-02-08 07:52:00,21.0,20.0,-100.00,SSE,147,0.0,2.0,96,0.00,,,0.02,2.000000,,2013-02-08 15:52:00,
2013-02-08 08:01:00,21.0,20.0,-100.00,SSE,147,0.0,2.0,96,0.00,,,0.02,2.000000,,2013-02-08 16:01:00,
2013-02-08 08:11:00,21.0,20.0,-100.00,SSE,147,0.0,2.0,96,0.00,,,0.02,2.000000,,2013-02-08 16:11:00,
2013-02-08 08:21:00,21.0,20.0,-100.00,SSE,147,0.0,2.0,96,0.00,,,0.02,2.000000,,2013-02-08 16:21:00,
2013-02-08 08:52:00,24.0,23.0,-100.00,ENE,75,2.0,4.0,97,0.00,,,0.02,44.000000,,2013-02-08 16:52:00,
2013-02-08 09:03:00,24.0,23.0,-100.00,ENE,75,2.0,4.0,97,0.00,,,0.02,44.000000,,2013-02-08 17:03:00,
2013-02-08 09:11:00,24.0,23.0,-100.00,ENE,75,2.0,4.0,97,0.00,,,0.02,44.000000,,2013-02-08 17:11:00,
2013-02-08 09:21:00,24.0,23.0,-100.00,ENE,75,2.0,4.0,97,0.00,,,0.02,44.000000,,2013-02-08 17:21:00,
2013-02-08 09:52:00,28.0,22.0,-100.00,NNE,26,3.0,7.0,79,0.00,,,0.02,162.000000,,2013-02-08 17:52:00,
2013-02-08 10:01:00,28.0,22.0,-100.00,NNE,26,3.0,7.0,79,0.00,,,0.02,162.000000,,2013-02-08 18:01:00,
2013-02-08 10:11:00,28.0,22.0,-100.00,NNE,26,3.0,7.0,79,0.00,,,0.02,162.000000,,2013-02-08 18:11:00,
2013-02-08 10:23:00,28.0,22.0,-100.00,NNE,26,3.0,7.0,79,0.00,,,0.02,162.000000,,2013-02-08 18:23:00,
2013-02-08 10:52:00,29.0,18.0,-100.00,NNE,22,4.0,11.0,63,0.00,,,0.02,150.000000,,2013-02-08 18:52:00,
2013-02-08 11:01:00,29.0,18.0,-100.00,NNE,22,4.0,11.0,63,0.00,,,0.02,150.000000,,2013-02-08 19:01:00,
2013-02-08 11:11:00,29.0,18.0,-100.00,NNE,22,4.0,11.0,63,0.00,,,0.02,150.000000,,2013-02-08 19:11:00,
2013-02-08 11:22:00,29.0,18.0,-100.00,NNE,22,4.0,11.0,63,0.00,,,0.02,150.000000,,2013-02-08 19:22:00,
2013-02-08 11:52:00,35.0,20.0,-100.00,NE,52,3.0,10.0,55,0.00,,,0.00,334.000000,,2013-02-08 19:52:00,
2013-02-08 12:01:00,35.0,20.0,-100.00,NE,52,3.0,10.0,55,0.00,,,0.00,334.000000,,2013-02-08 20:01:00,
2013-02-08 12:11:00,35.0,20.0,-100.00,NE,52,3.0,10.0,55,0.00,,,0.00,334.000000,,2013-02-08 20:11:00,
2013-02-08 12:21:00,35.0,20.0,-100.00,NE,52,3.0,10.0,55,0.00,,,0.00,334.000000,,2013-02-08 20:21:00,
2013-02-08 12:52:00,34.0,16.0,-100.00,North,1,5.0,12.0,48,0.00,,,0.00,501.000000,,2013-02-08 20:52:00,
2013-02-08 13:01:00,34.0,16.0,-100.00,North,1,5.0,12.0,48,0.00,,,0.00,501.000000,,2013-02-08 21:01:00,
2013-02-08 13:11:00,34.0,16.0,-100.00,North,1,5.0,12.0,48,0.00,,,0.00,501.000000,,2013-02-08 21:11:00,
2013-02-08 13:21:00,34.0,16.0,-100.00,North,1,5.0,12.0,48,0.00,,,0.00,501.000000,,2013-02-08 21:21:00,
2013-02-08 13:42:00,36.0,16.0,-100.00,North,6,5.0,14.0,43,0.00,,,0.00,480.000000,,2013-02-08 21:42:00,
2013-02-08 13:52:00,36.0,16.0,-100.00,North,6,5.0,14.0,43,0.00,,,0.00,480.000000,,2013-02-08 21:52:00,
2013-02-08 14:01:00,36.0,16.0,-100.00,North,6,5.0,14.0,43,0.00,,,0.00,480.000000,,2013-02-08 22:01:00,
2013-02-08 14:11:00,36.0,16.0,-100.00,North,6,5.0,14.0,43,0.00,,,0.00,480.000000,,2013-02-08 22:11:00,
2013-02-08 14:21:00,36.0,16.0,-100.00,North,6,5.0,14.0,43,0.00,,,0.00,480.000000,,2013-02-08 22:21:00,
2013-02-08 14:52:00,36.0,15.0,-100.00,North,355,6.0,14.0,41,0.00,,,0.00,436.000000,,2013-02-08 22:52:00,
2013-02-08 15:01:00,36.0,15.0,-100.00,North,355,6.0,14.0,41,0.00,,,0.00,436.000000,,2013-02-08 23:01:00,
2013-02-08 15:11:00,36.0,15.0,-100.00,North,355,6.0,14.0,41,0.00,,,0.00,436.000000,,2013-02-08 23:11:00,
2013-02-08 15:21:00,36.0,15.0,-100.00,North,355,6.0,14.0,41,0.00,,,0.00,436.000000,,2013-02-08 23:21:00,
2013-02-08 15:42:00,37.0,14.0,-100.00,NNW,337,4.0,17.0,39,0.00,,,0.00,350.000000,,2013-02-08 23:42:00,
2013-02-08 15:52:00,37.0,14.0,-100.00,NNW,337,4.0,17.0,39,0.00,,,0.00,350.000000,,2013-02-08 23:52:00,
2013-02-08 16:01:00,37.0,14.0,-100.00,NNW,337,4.0,17.0,39,0.00,,,0.00,350.000000,,2013-02-09 00:01:00,
2013-02-08 16:11:00,37.0,14.0,-100.00,NNW,337,4.0,17.0,39,0.00,,,0.00,350.000000,,2013-02-09 00:11:00,
2013-02-08 16:21:00,37.0,14.0,-100.00,NNW,337,4.0,17.0,39,0.00,,,0.00,350.000000,,2013-02-09 00:21:00,
2013-02-08 16:52:00,35.0,13.0,-100.00,NE,38,4.0,12.0,39,0.00,,,0.00,245.000000,,2013-02-09 00:52:00,
2013-02-08 17:01:00,35.0,13.0,-100.00,NE,38,4.0,12.0,39,0.00,,,0.00,245.000000,,2013-02-09 01:01:00,
2013-02-08 17:11:00,35.0,13.0,-100.00,NE,38,4.0,12.0,39,0.00,,,0.00,245.000000,,2013-02-09 01:11:00,
2013-02-08 17:21:00,35.0,13.0,-100.00,NE,38,4.0,12.0,39,0.00,,,0.00,245.000000,,2013-02-09 01:21:00,
2013-02-08 17:52:00,29.0,14.0,-100.00,North,5,2.0,8.0,54,0.00,,,0.00,56.000000,,2013-02-09 01:52:00,
2013-02-08 18:01:00,29.0,14.0,-100.00,North,5,2.0,8.0,54,0.00,,,0.00,56.000000,,2013-02-09 02:01:00,
2013-02-08 18:11:00,29.0,14.0,-100.00,North,5,2.0,8.0,54,0.00,,,0.00,56.000000,,2013-02-09 02:11:00,
2013-02-08 18:21:00,29.0,14.0,-100.00,North,5,2.0,8.0,54,0.00,,,0.00,56.000000,,2013-02-09 02:21:00,
2013-02-08 18:42:00,26.0,15.0,-100.00,SW,226,2.0,4.0,63,0.00,,,0.00,1.000000,,2013-02-09 02:42:00,
2013-02-08 18:52:00,26.0,15.0,-100.00,SW,226,2.0,4.0,63,0.00,,,0.00,1.000000,,2013-02-09 02:52:00,
2013-02-08 19:01:00,26.0,15.0,-100.00,SW,226,2.0,4.0,63,0.00,,,0.00,1.000000,,2013-02-09 03:01:00,
2013-02-08 19:11:00,26.0,15.0,-100.00,SW,226,2.0,4.0,63,0.00,,,0.00,1.000000,,2013-02-09 03:11:00,
2013-02-08 19:21:00,26.0,15.0,-100.00,SW,226,2.0,4.0,63,0.00,,,0.00,1.000000,,2013-02-09 03:21:00,
2013-02-08 19:42:00,25.0,16.0,-100.00,SW,223,2.0,3.0,68,0.00,,,0.00,1.000000,,2013-02-09 03:42:00,
2013-02-08 19:52:00,25.0,16.0,-100.00,SW,223,2.0,3.0,68,0.00,,,0.00,1.000000,,2013-02-09 03:52:00,
2013-02-08 20:02:00,25.0,16.0,-100.00,SW,223,2.0,3.0,68,0.00,,,0.00,1.000000,,2013-02-09 04:02:00,
2013-02-08 20:11:00,25.0,16.0,-100.00,SW,223,2.0,3.0,68,0.00,,,0.00,1.000000,,2013-02-09 04:11:00,
2013-02-08 20:22:00,25.0,16.0,-100.00,SW,223,2.0,3.0,68,0.00,,,0.00,1.000000,,2013-02-09 04:22:00,
2013-02-08 20:52:00,24.0,17.0,-100.00,NE,54,2.0,4.0,74,0.00,,,-99.99,1.000000,,2013-02-09 04:52:00,
2013-02-08 21:02:00,24.0,17.0,-100.00,NE,54,2.0,4.0,74,0.00,,,-99.99,1.000000,,2013-02-09 05:02:00,
2013-02-08 21:12:00,24.0,17.0,-100.00,NE,54,2.0,4.0,74,0.00,,,-99.99,1.000000,,2013-02-09 05:12:00,
2013-02-08 21:22:00,24.0,17.0,-100.00,NE,54,2.0,4.0,74,0.00,,,-99.99,1.000000,,2013-02-09 05:22:00,
2013-02-08 21:52:00,24.0,17.0,-100.00,NNE,14,2.0,5.0,74,0.00,,,0.00,1.000000,,2013-02-09 05:52:00,
2013-02-08 22:01:00,24.0,17.0,-100.00,NNE,14,2.0,5.0,74,0.00,,,0.00,1.000000,,2013-02-09 06:01:00,
2013-02-08 22:11:00,24.0,17.0,-100.00,NNE,14,2.0,5.0,74,0.00,,,0.00,1.000000,,2013-02-09 06:11:00,
2013-02-08 22:21:00,24.0,17.0,-100.00,NNE,14,2.0,5.0,74,0.00,,,0.00,1.000000,,2013-02-09 06:21:00,
2013-02-08 22:52:00,23.0,16.0,-100.00,North,0,1.0,3.0,73,0.00,,,0.00,1.000000,,2013-02-09 06:52:00,
2013-02-08 23:01:00,23.0,16.0,-100.00,North,0,1.0,3.0,73,0.00,,,0.00,1.000000,,2013-02-09 07:01:00,
2013-02-08 23:11:00,23.0,16.0,-100.00,North,0,1.0,3.0,73,0.00,,,0.00,1.000000,,2013-02-09 07:11:00,
2013-02-08 23:21:00,23.0,16.0,-100.00,North,0,1.0,3.0,73,0.00,,,0.00,1.000000,,2013-02-09 07:21:00,
2013-02-08 23:52:00,21.0,15.0,-100.00,SE,141,1.0,2.0,77,0.00,,,0.00,1.000000,,2013-02-09 07:52:00,